Location: Bogis-Bossey
(46.3500°N, 6.1667°E)
Time: 18:29:13
(UTC+00:00)

Cosmos 2100 Rocket - Pass Details

Date: 17 August 2022
Orbit: 955 x 1001 km, 82.9° (Epoch: 30 September)

Event Time Altitude Azimuth Distance (km) Brightness Sun altitude
Rises 20:01:34 0° 349° (N) 3,668 7.8 -13.0°
Reaches altitude 10° 20:04:05 10° 348° (NNW) 2,711 7.0 -13.4°
Maximum altitude 20:10:15 75° 265° (W) 996 4.2 -14.2°
Drops below altitude 10° 20:16:21 10° 181° (S) 2,677 5.9 -15.1°
Enters shadow 20:17:30 - 180° (S) 3,109 6.3 -15.2°
